sat.trackr.live / text

‹ back to catalog

STARLINK-32613

NORAD 61970 · 2024-210M

PAYLOAD ACTIVE UNKNOWN

§ Identity

Operator
Country
US
Launch date
2024-11-14
Launch site
AFETR
Launch vehicle
Mass (kg)
RCS (m²)

Purposes: comms

External: N2YO · Heavens-Above · Gunter

§ Orbital elements

Epoch: 2026-09-21T23:07:03.760608Z

Period
94.27 min
Inclination
42.9993°
Eccentricity
0.0001999
Mean motion
15.27586987 rev/d
Perigee alt
481.7 km
Apogee alt
484.4 km
Semi-major
6,861.2 km
B*
7.2480e-4
RAAN
151.7009°
Arg perigee
276.9972°
Mean anomaly
83.0652°
Rev number
10,493

§ Raw data

STARLINK-326131 61970U 24210M   26264.96323797  .00019741  00000+0  72480-3 0  99932 61970  42.9993 151.7009 0001999 276.9972  83.0652 15.27586987104933

JSON: /api/v1/satellites/61970 · /tle

For live sub-satellite position, see the globe view (requires WebGL).

§ Visibility from observer

Set your observer location to see the next 7 days of passes ≥ 10°. The values pass through the URL so the page stays shareable.

No JS? Fill the form by hand. The geolocation button needs JavaScript.